Fort Drum, NY

1:28 PM EST on December 08, 2019 (GMT -0500)
Wheeler-Sack Army Air Field

Weather History for KGTB - November, 2019

Change the Weather History Date:

Sunday, November 17, 2019

  Actual Average Record
Temperature  
Mean Temperature 21 °F -  
Max Temperature 35 °F 42 °F 60 °F (2006)
Min Temperature 7 °F 27 °F 7 °F (2019)
Degree Days  
Heating Degree Days 44    
Moisture  
Dew Point 12 °F    
Average Humidity 59    
Maximum Humidity 70    
Minimum Humidity 39    
Precipitation  
Precipitation 0.00 in - - ()
Sea Level Pressure  
Sea Level Pressure 30.30 in    
Wind  
Wind Speed 9 mph (SE)    
Max Wind Speed 18 mph    
Max Gust Speed 28 mph    
Visibility 10 miles    
Events      
Averages and records for this station are not official NWS values.
T = Trace of Precipitation, MM = Missing Value Source: NWS Daily Summary

Daily Weather History Graph

Daily Weather History Graph

Search for Another Location

Airport or City:

Astronomy

Nov. 17, 2019 Rise Set
Actual Time 7:00 AM EST 4:34 PM EST
Civil Twilight 6:28 AM EST 5:06 PM EST
Nautical Twilight 5:53 AM EST 5:41 PM EST
Astronomical Twilight 5:19 AM EST 6:15 PM EST
Moon 9:06 PM EST (11/17) 11:47 AM EST (11/17)
Length of Visible Light 10h 37m
Length of Day
9h 34m
Waning Gibbous, 73% of the Moon is Illuminated
Nov 17
Waning Gibbous
Nov 19
Last Quarter
Nov 26
New
Dec 4
First Quarter
Dec 12
Full

Hourly Weather History & Observations

Time (EST) Temp. Windchill Dew Point Humidity Pressure Visibility Wind Dir Wind Speed Gust Speed Precip Events Conditions
12:56 AM 7.3 °F -1.3 °F -1.1 °F 68% 30.47 in 10.0 mi East 4.6 mph - N/A   Clear
1:56 AM 9.3 °F 1.0 °F 0.9 °F 69% 30.47 in 10.0 mi East 4.6 mph - N/A   Mostly Cloudy
2:56 AM 8.4 °F - 0.5 °F 70% 30.45 in 10.0 mi Calm Calm - N/A   Overcast
3:56 AM 13.3 °F -1.1 °F 2.7 °F 63% 30.43 in 10.0 mi SE 12.7 mph - N/A   Clear
4:56 AM 13.3 °F -0.5 °F 3.4 °F 65% 30.43 in 10.0 mi SE 11.5 mph - N/A   Scattered Clouds
5:56 AM 14.5 °F 1.1 °F 4.3 °F 64% 30.42 in 10.0 mi SE 11.5 mph - N/A   Partly Cloudy
6:56 AM 14.5 °F 1.9 °F 3.9 °F 63% 30.41 in 10.0 mi SSE 10.4 mph - N/A   Scattered Clouds
7:56 AM 14.5 °F 2.7 °F 4.3 °F 64% 30.41 in 10.0 mi South 9.2 mph - N/A   Clear
8:56 AM 19.0 °F 13.9 °F 4.6 °F 54% 30.40 in 10.0 mi SE 3.5 mph - N/A   Clear
9:56 AM 25.7 °F 15.7 °F 4.6 °F 41% 30.38 in 10.0 mi SE 10.4 mph - N/A   Clear
10:56 AM 29.5 °F 21.8 °F 7.0 °F 39% 30.36 in 10.0 mi SE 8.1 mph - N/A   Clear
11:56 AM 32.5 °F 23.7 °F 12.6 °F 44% 30.31 in 10.0 mi SE 11.5 mph - N/A   Clear
12:56 PM 35.2 °F 26.2 °F 17.1 °F 48% 30.28 in 10.0 mi SE 13.8 mph - N/A   Clear
1:56 PM 35.6 °F 26.2 °F 18.9 °F 51% 30.25 in 10.0 mi SSE 15.0 mph - N/A   Clear
2:56 PM 35.6 °F 27.5 °F 19.8 °F 53% 30.24 in 10.0 mi SE 11.5 mph - N/A   Clear
3:56 PM 34.9 °F 27.1 °F 20.3 °F 55% 30.22 in 10.0 mi SSE 10.4 mph - N/A   Clear
4:56 PM 33.3 °F 24.1 °F 18.3 °F 54% 30.21 in 10.0 mi SSE 12.7 mph - N/A   Clear
5:56 PM 31.5 °F 21.4 °F 18.3 °F 58% 30.21 in 10.0 mi SSE 13.8 mph - N/A   Clear
6:56 PM 30.9 °F 21.7 °F 18.7 °F 61% 30.18 in 10.0 mi SE 11.5 mph - N/A   Clear
7:56 PM 30.2 °F 20.2 °F 19.0 °F 63% 30.17 in 10.0 mi SSE 12.7 mph - N/A   Clear
8:56 PM 31.1 °F 19.7 °F 21.0 °F 66% 30.14 in 10.0 mi SSE 17.3 mph - N/A   Clear
9:56 PM 31.6 °F 20.0 °F 21.9 °F 67% 30.10 in 10.0 mi SSE 18.4 mph 25.3 mph N/A   Clear
10:56 PM 31.6 °F 20.4 °F 22.3 °F 68% 30.09 in 10.0 mi SSE 17.3 mph 27.6 mph N/A   Scattered Clouds
11:56 PM 31.6 °F 22.1 °F 22.6 °F 69% 30.08 in 10.0 mi SSE 12.7 mph - N/A   Overcast